[[{"header":{"parameterUnit":"m.s-1","parameterCategory":2,"la1":30.2992,"la2":30.254,"lo1":-89.0895,"lo2":-89.0443,"dy":0.0025,"dx":0.0025,"nx":19,"ny":19,"refTime":"2026-04-21T03:00:00:Z","depth":"0","parameterNumber":2,"parameterNumberName":"U-component_of_CURRENTS"},"data":[0,0,0,0.3437,0.344,0.3547,0.3548,0.3626,0.3626,0,0,0,0,0,0,0,0,0,0,0,0.3393,0.3394,0.3436,0.344,0.3547,0.3548,0.3625,0.3626,0,0,0,0,0,0,0,0,0,0,0,0.3392,0.3394,0.3395,0.3441,0.3547,0.3548,0.3625,0.3552,0,0,0,0,0,0,0,0,0,0,0.3452,0.3418,0.3393,0.3395,0.3442,0.3547,0.3548,0.3549,0.3557,0.3568,0,0.3606,0,0.3633,0.3633,0.3633,0,0,0,0.3413,0.3412,0.3461,0.3396,0.3443,0.3547,0.3491,0.3554,0.3562,0.3578,0.3607,0.3611,0.3635,0.3633,0.3634,0.3684,0.3684,0,0,0.3407,0.3388,0.3455,0.3467,0.3498,0.3488,0.3495,0.3559,0.3567,0.3607,0.3613,0.3636,0.3634,0.3635,0.3685,0.3684,0,0,0,0.3408,0.3384,0.3431,0.3463,0.3497,0.3492,0.35,0.3563,0.3586,0.3614,0.3637,0.3635,0.3636,0.3685,0.3684,0.3608,0,0,0,0.3403,0.3387,0.3428,0.3414,0.3496,0.3538,0.3502,0.358,0.3589,0.3637,0.3635,0.3637,0.3685,0.3685,0.3611,0.3612,0,0,0,0.3383,0.3384,0.3409,0.3414,0.3476,0.3538,0.3562,0.3583,0.3605,0.3633,0.3637,0.3685,0.3685,0.3613,0.3615,0.3697,0,0,0,0.334,0.3342,0.3409,0.3418,0.3476,0.3521,0.3562,0.3599,0.3621,0.3635,0.3685,0.3684,0.3613,0.3617,0.3697,0.3726,0.3728,0,0,0.3303,0.3337,0.3339,0.3402,0.3419,0.3502,0.3503,0.3561,0.3616,0.3655,0.3657,0.361,0.3615,0.3697,0.3704,0.3707,0,0,0,0.3301,0.3295,0.3317,0.3351,0.3421,0.3455,0.3523,0.3552,0.3591,0.3637,0.3624,0.3631,0.3685,0.3702,0.3704,0.3701,0.3683,0.3683,0.3683,0.3166,0.3218,0.3202,0.3266,0.3312,0.3418,0.3454,0.3509,0.3556,0.3564,0.3576,0.3601,0.3613,0.3616,0.3609,0.3569,0.3568,0.3568,0.3568,0.3045,0.3048,0.3096,0.3096,0.3188,0.3217,0.336,0.342,0.3519,0.352,0.3576,0.3629,0.3615,0.3607,0.3563,0.3564,0.3565,0.3565,0.3565,0.2927,0.2953,0.2935,0.2964,0.3005,0.3133,0.3268,0.3372,0.3474,0.3521,0.3638,0.364,0.3636,0.3577,0.3578,0.3578,0.3578,0.3578,0.3579,0.286,0.2852,0.2875,0.287,0.2936,0.305,0.3251,0.3377,0.354,0.3601,0.3602,0.3643,0.3606,0.361,0.3584,0.3583,0.3582,0.3582,0.3581,0.2873,0.2865,0.2899,0.2945,0.3045,0.3086,0.3288,0.3478,0.3616,0.3681,0.3697,0.3668,0.3726,0.3725,0.3733,0.3741,0.3741,0.3741,0.3741,0.2932,0.2909,0.3002,0.3067,0.313,0.3144,0.3275,0.3423,0.362,0.37,0.3757,0.3712,0.3706,0.3761,0.3758,0.3767,0.3784,0.3784,0.3784,0.3044,0.3048,0.3112,0.3087,0.3149,0.3166,0.3139,0.3188,0.3527,0.3783,0.3745,0.3743,0.3671,0.3662,0.3743,0.374,0.3752,0,0]},{"header":{"parameterUnit":"m.s-1","parameterCategory":2,"la1":30.2992,"la2":30.254,"lo1":-89.0895,"lo2":-89.0443,"dy":0.0025,"dx":0.0025,"nx":19,"ny":19,"refTime":"2026-04-21T03:00:00:Z","depth":"0","parameterNumber":3,"parameterNumberName":"V-component_of_CURRENTS"},"data":[0,0,0,0.0404,0.0403,0.0327,0.0326,0.0159,0.0158,0,0,0,0,0,0,0,0,0,0,0,0.0424,0.0424,0.0404,0.0403,0.0327,0.0326,0.016,0.0158,0,0,0,0,0,0,0,0,0,0,0,0.0424,0.0424,0.0424,0.0403,0.0327,0.0326,0.016,0.0228,0,0,0,0,0,0,0,0,0,0,0.0308,0.0346,0.0424,0.0424,0.0402,0.0327,0.0326,0.0232,0.0224,0.0182,0,0.0186,0,0.0181,0.0148,0.0147,0,0,0,0.0376,0.0353,0.0339,0.0424,0.0402,0.0328,0.0354,0.0228,0.0219,0.0171,0.0183,0.0178,0.0178,0.0147,0.0146,0.0095,0.0096,0,0,0.038,0.0396,0.0346,0.0334,0.04,0.0356,0.0352,0.0223,0.0215,0.0183,0.0174,0.0175,0.0146,0.0145,0.0094,0.0095,0,0,0,0.041,0.0399,0.0389,0.034,0.0339,0.0355,0.0349,0.0221,0.022,0.0172,0.0173,0.0145,0.0143,0.0094,0.0095,0.0252,0,0,0,0.0411,0.0419,0.0391,0.0398,0.0343,0.0289,0.035,0.0228,0.0214,0.0174,0.0145,0.0141,0.0093,0.0094,0.0246,0.0328,0,0,0,0.0424,0.042,0.0419,0.0399,0.038,0.0292,0.0282,0.0225,0.0215,0.0147,0.0141,0.0093,0.0094,0.0241,0.0319,0.0388,0,0,0,0.0431,0.0463,0.0419,0.0454,0.0381,0.0384,0.0283,0.0259,0.0213,0.0144,0.0093,0.0095,0.024,0.0313,0.0382,0.0504,0.0541,0,0,0.0484,0.047,0.0494,0.0454,0.05,0.0391,0.0419,0.0311,0.0216,0.0124,0.0123,0.0248,0.0318,0.0386,0.0585,0.0621,0,0,0,0.052,0.0544,0.0548,0.0561,0.0533,0.052,0.0414,0.0366,0.0292,0.02,0.0232,0.0271,0.031,0.0371,0.0398,0.0262,0.0101,0.0101,0.0101,0.0612,0.0612,0.0668,0.0666,0.0657,0.0601,0.0579,0.0488,0.0379,0.0376,0.0388,0.0533,0.06,0.0622,0.048,0.0366,0.0366,0.0367,0.0367,0.0725,0.0772,0.0763,0.0815,0.0792,0.0795,0.0725,0.0664,0.0626,0.0513,0.0542,0.0519,0.0662,0.0499,0.0377,0.0375,0.0374,0.0373,0.0372,0.0786,0.0821,0.0838,0.0921,0.0972,0.0941,0.1045,0.0932,0.0784,0.0809,0.0833,0.0831,0.0696,0.0816,0.0817,0.0817,0.0818,0.0818,0.0819,0.0857,0.0885,0.0998,0.1053,0.1148,0.1245,0.1237,0.1239,0.1143,0.1023,0.1023,0.0742,0.0669,0.0661,0.083,0.0828,0.0826,0.0825,0.0825,0.1008,0.1006,0.1187,0.13,0.1519,0.17,0.1673,0.166,0.1569,0.1535,0.1091,0.1119,0.1078,0.1054,0.1054,0.1314,0.1314,0.1314,0.1314,0.113,0.1131,0.1414,0.1634,0.1858,0.1945,0.2175,0.207,0.1644,0.1401,0.1212,0.1118,0.1104,0.1054,0.103,0.1024,0.127,0.127,0.1269,0.1298,0.1355,0.1581,0.1744,0.202,0.2209,0.239,0.2341,0.1687,0.1244,0.1002,0.1004,0.0831,0.082,0.0704,0.0683,0.0658,0,0]}],[{"header":{"parameterUnit":"m.s-1","parameterCategory":2,"la1":30.2992,"la2":30.254,"lo1":-89.0895,"lo2":-89.0443,"dy":0.0025,"dx":0.0025,"nx":19,"ny":19,"refTime":"2026-04-21T03:00:00:Z","depth":"2","parameterNumber":2,"parameterNumberName":"U-component_of_CURRENTS"},"data":[0,0,0,0.3143,0.3146,0.3283,0.3283,0.3342,0.3342,0,0,0,0,0,0,0,0,0,0,0,0.3083,0.3084,0.3142,0.3147,0.3283,0.3283,0.3342,0.3342,0,0,0,0,0,0,0,0,0,0,0,0.3083,0.3084,0.3085,0.3147,0.3283,0.3283,0.3342,0.3263,0,0,0,0,0,0,0,0,0,0,0.3143,0.3118,0.3084,0.3085,0.3148,0.3283,0.3283,0.326,0.3267,0.3253,0,0.3287,0,0.3329,0.3345,0.3345,0,0,0,0.3127,0.3112,0.3149,0.3086,0.315,0.3282,0.3216,0.3265,0.3273,0.3263,0.3288,0.3292,0.333,0.3346,0.3346,0.3398,0.3398,0,0,0.3119,0.3103,0.3143,0.3155,0.32,0.3211,0.322,0.3271,0.3283,0.3288,0.3294,0.3331,0.3346,0.3346,0.3398,0.3398,0,0,0,0.3111,0.3098,0.3136,0.3151,0.3193,0.3216,0.3226,0.328,0.3294,0.3295,0.3331,0.3346,0.3347,0.3398,0.3398,0.3362,0,0,0,0.3105,0.3095,0.3132,0.3123,0.3193,0.3257,0.3234,0.329,0.3298,0.3331,0.3346,0.3347,0.3397,0.3398,0.3363,0.3369,0,0,0,0.3074,0.3092,0.3112,0.3122,0.3193,0.3258,0.3274,0.3293,0.3321,0.3345,0.3347,0.3397,0.3398,0.3363,0.337,0.3446,0,0,0,0.3045,0.305,0.3112,0.3133,0.3192,0.3251,0.3275,0.3329,0.3352,0.3346,0.3397,0.3398,0.3363,0.337,0.3444,0.3432,0.3437,0,0,0.302,0.3047,0.3056,0.3115,0.3132,0.3229,0.3259,0.331,0.3351,0.3368,0.3371,0.3363,0.337,0.3445,0.3463,0.3466,0,0,0,0.3027,0.3022,0.3038,0.3081,0.3153,0.3204,0.3283,0.3319,0.3365,0.3375,0.3383,0.339,0.3439,0.3429,0.3432,0.34,0.34,0.34,0.34,0.2911,0.2966,0.2961,0.3022,0.3078,0.3198,0.3248,0.3319,0.3347,0.3374,0.3375,0.3429,0.3416,0.3419,0.3381,0.338,0.338,0.338,0.338,0.282,0.2833,0.2894,0.2904,0.3,0.3059,0.3207,0.3268,0.3373,0.3366,0.3415,0.3408,0.342,0.3378,0.3378,0.3379,0.3379,0.3379,0.3379,0.272,0.275,0.2753,0.2813,0.2874,0.3003,0.314,0.3255,0.3356,0.3407,0.3468,0.3468,0.3437,0.3454,0.3455,0.3455,0.3455,0.3456,0.3456,0.2663,0.2674,0.2701,0.2739,0.2801,0.2928,0.3134,0.3254,0.3408,0.3461,0.3461,0.3456,0.3454,0.3444,0.3461,0.346,0.346,0.3459,0.3459,0.2653,0.2664,0.2715,0.2759,0.286,0.2895,0.3101,0.3283,0.3439,0.3494,0.3509,0.3506,0.3537,0.3534,0.3529,0.3567,0.3567,0.3567,0.3567,0.2674,0.2671,0.2779,0.2836,0.2892,0.2907,0.297,0.3081,0.3291,0.3356,0.3364,0.3291,0.3293,0.3307,0.3309,0.3297,0.3275,0.3274,0.3273,0.2726,0.2771,0.2835,0.285,0.2884,0.2875,0.276,0.2685,0.2929,0.3253,0.322,0.3566,0.348,0.3474,0.3513,0.351,0.3498,0,0]},{"header":{"parameterUnit":"m.s-1","parameterCategory":2,"la1":30.2992,"la2":30.254,"lo1":-89.0895,"lo2":-89.0443,"dy":0.0025,"dx":0.0025,"nx":19,"ny":19,"refTime":"2026-04-21T03:00:00:Z","depth":"2","parameterNumber":3,"parameterNumberName":"V-component_of_CURRENTS"},"data":[0,0,0,0.0316,0.0315,0.0249,0.0248,0.0102,0.0101,0,0,0,0,0,0,0,0,0,0,0,0.0336,0.0336,0.0316,0.0315,0.0249,0.0248,0.0102,0.0101,0,0,0,0,0,0,0,0,0,0,0,0.0336,0.0336,0.0336,0.0315,0.0249,0.0248,0.0102,0.0162,0,0,0,0,0,0,0,0,0,0,0.0232,0.0266,0.0336,0.0336,0.0315,0.0249,0.0248,0.0166,0.0159,0.0121,0,0.0124,0,0.0118,0.0091,0.0091,0,0,0,0.0294,0.0273,0.026,0.0336,0.0314,0.0249,0.0273,0.0162,0.0154,0.0111,0.0122,0.0117,0.0115,0.009,0.009,0.0048,0.0049,0,0,0.0297,0.0312,0.0266,0.0256,0.0313,0.0275,0.0271,0.0158,0.0151,0.0121,0.0114,0.0113,0.0089,0.0088,0.0048,0.0049,0,0,0,0.0322,0.0314,0.0305,0.0261,0.0259,0.0274,0.0269,0.0156,0.0155,0.0112,0.0111,0.0089,0.0087,0.0047,0.0048,0.0194,0,0,0,0.0323,0.033,0.0307,0.0313,0.0262,0.0216,0.027,0.0163,0.015,0.0112,0.0089,0.0086,0.0047,0.0048,0.0188,0.0268,0,0,0,0.0336,0.0331,0.033,0.0314,0.0296,0.0218,0.0209,0.016,0.015,0.0091,0.0085,0.0046,0.0048,0.0184,0.0258,0.031,0,0,0,0.0342,0.0375,0.0331,0.0367,0.0297,0.0304,0.021,0.0191,0.0153,0.0088,0.0047,0.0048,0.0182,0.0253,0.0305,0.0381,0.0412,0,0,0.0395,0.0381,0.0406,0.0366,0.0412,0.0311,0.0341,0.0244,0.0157,0.0074,0.0073,0.019,0.0258,0.0309,0.0461,0.049,0,0,0,0.0432,0.0454,0.0458,0.0471,0.0448,0.0436,0.034,0.0295,0.0229,0.0143,0.0177,0.0215,0.0243,0.0277,0.03,0.0055,0.0055,0.0054,0.0054,0.0516,0.0519,0.0573,0.0573,0.0567,0.0516,0.0496,0.0412,0.0312,0.031,0.0324,0.0452,0.0491,0.0509,0.0303,0.0303,0.0304,0.0304,0.0305,0.0621,0.0658,0.0661,0.0713,0.0694,0.0701,0.0635,0.0578,0.0541,0.0442,0.0461,0.0418,0.0543,0.0316,0.0314,0.0312,0.0311,0.031,0.031,0.067,0.0695,0.0726,0.0807,0.086,0.0834,0.0918,0.0824,0.0689,0.0709,0.0699,0.0696,0.0544,0.0709,0.0709,0.071,0.0711,0.0711,0.0711,0.0708,0.0748,0.0838,0.0915,0.0991,0.1087,0.1088,0.1082,0.0989,0.0874,0.0873,0.0588,0.0575,0.0566,0.0721,0.0719,0.0718,0.0717,0.0716,0.0772,0.0794,0.0948,0.1041,0.1241,0.14,0.139,0.1373,0.1315,0.127,0.0947,0.0938,0.0894,0.0874,0.0871,0.1095,0.1095,0.1095,0.1095,0.081,0.0833,0.1066,0.1249,0.1455,0.1553,0.1699,0.1606,0.1381,0.1205,0.12,0.1129,0.1113,0.1073,0.1048,0.1045,0.1315,0.1316,0.1316,0.086,0.0941,0.1114,0.1304,0.1548,0.1718,0.1803,0.1698,0.14,0.1319,0.1185,0.112,0.0998,0.0979,0.0894,0.0864,0.0848,0,0]}],[{"header":{"parameterUnit":"m.s-1","parameterCategory":2,"la1":30.2992,"la2":30.254,"lo1":-89.0895,"lo2":-89.0443,"dy":0.0025,"dx":0.0025,"nx":19,"ny":19,"refTime":"2026-04-21T03:00:00:Z","depth":"4","parameterNumber":2,"parameterNumberName":"U-component_of_CURRENTS"},"data":[0,0,0,0.18,0.1805,0.2041,0.2042,0.2232,0.2234,0,0,0,0,0,0,0,0,0,0,0,0.1724,0.1726,0.18,0.1805,0.2041,0.2042,0.2232,0.2234,0,0,0,0,0,0,0,0,0,0,0,0.1723,0.1725,0.1728,0.1806,0.2041,0.2042,0.2232,0.2083,0,0,0,0,0,0,0,0,0,0,0.1869,0.1819,0.1725,0.1728,0.1808,0.2041,0.2042,0.2077,0.2092,0.2091,0,0.2138,0,0.2183,0.2243,0.2244,0,0,0,0.1812,0.1807,0.1862,0.1728,0.181,0.204,0.1937,0.2087,0.2103,0.2111,0.2141,0.2149,0.2187,0.2244,0.2245,0.2424,0.2425,0,0,0.1799,0.1774,0.185,0.1873,0.1882,0.1929,0.1944,0.2098,0.2122,0.2142,0.2154,0.219,0.2245,0.2246,0.2424,0.2425,0,0,0,0.1757,0.1764,0.1818,0.1864,0.1913,0.1936,0.1953,0.2116,0.2133,0.2157,0.2192,0.2246,0.2248,0.2423,0.2424,0.2483,0,0,0,0.175,0.1739,0.1812,0.18,0.191,0.2035,0.1967,0.2122,0.2141,0.2191,0.2246,0.2249,0.2422,0.2423,0.248,0.2497,0,0,0,0.1711,0.1735,0.1764,0.1798,0.1896,0.2033,0.2061,0.2128,0.2162,0.2244,0.2249,0.2421,0.2423,0.2476,0.2492,0.2556,0,0,0,0.1673,0.1712,0.1764,0.1826,0.1894,0.2024,0.206,0.2176,0.225,0.2247,0.2422,0.2424,0.2475,0.2489,0.2552,0.2234,0,0,0,0.1688,0.1714,0.1748,0.1799,0.1908,0.1991,0.2129,0.2243,0.228,0.2361,0.2367,0.2481,0.2492,0.2555,0.2363,0,0,0,0,0.1729,0.1757,0.1797,0.1885,0.1985,0.2117,0.2231,0.2295,0.2427,0.2334,0.2508,0.2513,0.2551,0.2356,0.2434,0.2434,0.2434,0.2434,0.2433,0.1701,0.1766,0.184,0.1944,0.2043,0.222,0.233,0.2444,0.2466,0.2545,0.2582,0.2697,0.2495,0.2609,0.2609,0.261,0.261,0.261,0.261,0.1714,0.1747,0.1873,0.1968,0.2119,0.2255,0.2457,0.2526,0.2687,0.2669,0.2703,0.2457,0.2617,0.2616,0.2615,0.2614,0.2613,0.2613,0.2613,0.1668,0.1691,0.1785,0.1938,0.2109,0.2292,0.2455,0.2618,0.2737,0.2801,0.261,0.2749,0.2721,0.2834,0.2834,0.2835,0.2835,0.2835,0.2835,0.1567,0.1661,0.1729,0.1899,0.1996,0.2182,0.2469,0.2582,0.2747,0.2648,0.2832,0.2772,0.2765,0.2735,0.2841,0.284,0.284,0.2839,0.2839,0.1485,0.154,0.1604,0.1691,0.1895,0.1997,0.2306,0.2467,0.2562,0.2562,0.2565,0.2577,0.2527,0.2527,0.2485,0.2522,0.2518,0.2515,0,0.1409,0.1444,0.1503,0.1574,0.1672,0.188,0.1958,0.2145,0.231,0.2214,0.255,0.2544,0.2553,0.2488,0.2482,0.2427,0,0,0,0.1363,0.1372,0.1373,0.1455,0.1547,0.1724,0.1965,0.1963,0.2272,0.2309,0.2422,0.2446,0.27,0.2859,0.2812,0.2803,0.2753,0,0]},{"header":{"parameterUnit":"m.s-1","parameterCategory":2,"la1":30.2992,"la2":30.254,"lo1":-89.0895,"lo2":-89.0443,"dy":0.0025,"dx":0.0025,"nx":19,"ny":19,"refTime":"2026-04-21T03:00:00:Z","depth":"4","parameterNumber":3,"parameterNumberName":"V-component_of_CURRENTS"},"data":[0,0,0,0.0276,0.0276,0.0244,0.0244,0.016,0.0159,0,0,0,0,0,0,0,0,0,0,0,0.0284,0.0284,0.0276,0.0276,0.0244,0.0244,0.016,0.0159,0,0,0,0,0,0,0,0,0,0,0,0.0284,0.0284,0.0284,0.0276,0.0244,0.0244,0.016,0.0191,0,0,0,0,0,0,0,0,0,0,0.0226,0.0245,0.0284,0.0284,0.0276,0.0244,0.0243,0.0193,0.0189,0.0167,0,0.0171,0,0.017,0.0154,0.0154,0,0,0,0.026,0.0248,0.0243,0.0284,0.0275,0.0244,0.0254,0.0191,0.0187,0.0162,0.017,0.0167,0.0169,0.0153,0.0153,0.0126,0.0127,0,0,0.0262,0.027,0.0247,0.0241,0.0279,0.0255,0.0253,0.0189,0.0186,0.017,0.0166,0.0167,0.0153,0.0152,0.0126,0.0126,0,0,0,0.0277,0.0272,0.0269,0.0244,0.0246,0.0255,0.0252,0.0189,0.0189,0.0165,0.0166,0.0152,0.0152,0.0126,0.0126,0.0229,0,0,0,0.0278,0.0282,0.027,0.0273,0.0248,0.0223,0.0254,0.0193,0.0186,0.0167,0.0152,0.0151,0.0125,0.0126,0.0226,0.0289,0,0,0,0.0284,0.0282,0.0283,0.0274,0.0268,0.0225,0.022,0.0192,0.0188,0.0154,0.0151,0.0125,0.0126,0.0223,0.0282,0.0301,0,0,0,0.0286,0.031,0.0283,0.0314,0.0268,0.0282,0.0221,0.0218,0.0197,0.0152,0.0125,0.0126,0.0222,0.0278,0.0297,0.029,0,0,0,0.0323,0.0315,0.0335,0.0312,0.0352,0.0284,0.0311,0.0256,0.0195,0.014,0.0139,0.0227,0.0282,0.03,0.0329,0,0,0,0,0.0352,0.0368,0.0375,0.039,0.0382,0.038,0.032,0.0288,0.0244,0.0188,0.0212,0.0243,0.0251,0.0236,0.013,0.0129,0.0129,0.0129,0.0129,0.0402,0.0411,0.0454,0.0463,0.0467,0.0441,0.0429,0.0368,0.0302,0.0296,0.0315,0.0387,0.0374,0.029,0.0291,0.0291,0.0292,0.0292,0.0292,0.0467,0.048,0.0511,0.0557,0.0557,0.0571,0.0528,0.0488,0.0453,0.0389,0.0391,0.0332,0.0302,0.03,0.0299,0.0298,0.0297,0.0296,0.0296,0.0482,0.0485,0.0538,0.0601,0.0662,0.066,0.0705,0.0656,0.056,0.057,0.0511,0.0449,0.0452,0.0558,0.0558,0.0559,0.0559,0.0559,0.0559,0.0447,0.0501,0.055,0.0641,0.0698,0.0776,0.0809,0.0794,0.0716,0.0637,0.0598,0.0476,0.0467,0.0466,0.0565,0.0564,0.0563,0.0563,0.0562,0.0399,0.0442,0.0515,0.0582,0.0739,0.0817,0.0884,0.087,0.084,0.0772,0.0648,0.0642,0.06,0.0588,0.0589,0.0729,0.0729,0.0729,0,0.0349,0.0378,0.047,0.0579,0.071,0.0828,0.0862,0.0874,0.0777,0.0746,0.0774,0.0632,0.0627,0.0575,0.0565,0.0565,0,0,0,0.0297,0.0342,0.0391,0.0534,0.0695,0.0796,0.0874,0.0853,0.0803,0.081,0.0737,0.0735,0.0681,0.0583,0.0503,0.0492,0.0486,0,0]}]]